Weather in Dmitrovichi

Belarus     53°58′49″N   29°06′41″E
temp.,
°C
wind,
m/s
gust,
m/s
humid.,
%
clouds,
%
prec.,
mm/h
press.,
hPa
HPBL,
m
14 april, wed
wed1400:00+9s2698100 2.2 1017214
03:00+9s1299100 3.5 101660
06:00+9se1298100 1.2 101565
09:00+9se1396100 1.4 1016175
12:00+9se159699 0.4 1016287
15:00+12sse4571100 1.1 1015901
18:00+11sse2583100 0.3 1015385
21:00+9ene2388100 0.4 101681
15 april, thu
thu1500:00+9ene2590100 0.1 1016121
03:00+8ne3794100 0.4 1016228
06:00+7nne3897100 0.2 1017310
09:00+8nne4894100 0.5 1017414
12:00+9nne5787100 0.0 1017612
15:00+7n41194100 0.2 1016491
18:00+6nne51295100 1.8 1016644
21:00+8nne51394100 3.1 1015689
16 april, fri
fri1600:00+8ne51293100 0.1 1015673
03:00+7ne51293100 0.3 1014515
06:00+7ne61392100 0.0 1015686
09:00+8ne51291100 1.1 1016605
12:00+9ene51086100 0.1 1016883
15:00+11ene5983100 0.3 1017928
18:00+10ne6108469 0.2 1017782
21:00+9ne51289100 0.2 1018638
17 april, sat
sat1700:00+8ene41092100 0.2 1019565
03:00+9e379036 0.2 1019429
06:00+6e249797 0.0 1021103
09:00+10e357998 0.0 1023499
12:00+12ene357096 0.1 10231089
15:00+13ene4772100 0.3 10231102
18:00+11ene4982100 0.3 1024902
21:00+11ene51179100 0.4 1024796
18 april, sun
sun1800:00+10ene5127453 0.0 1024613
03:00+7ene411777 0.0 1024416
06:00+6ene41173100 0.0 1025445
09:00+8e58645 0.0 1025495
12:00+12e57557 0.0 10251040
15:00+12e576098 0.0 10251382
18:00+11ese486689 0.0 10251118
21:00+9e397299 0.0 1026513